• In Austria
  • List of Countries
  • For 7 days
  • Water Temperature
  • Satellite Maps
  • Weather Map
  • News
  • Weather Widgets
  • user-avatar
    Login

    Hourly Weather Sliven

    Today, 18 August, Saturday

    Time Temperature Precipitation Wind Pressure Humidity
    00:00 +23°C° 0 mm 1 mps 731 mmHg 53%
    01:00 +23°C° 0 mm 1 mps 731 mmHg 53%
    02:00 +22°C° 0 mm 1 mps 731 mmHg 53%
    03:00 +21°C° 0 mm 2 mps 731 mmHg 53%
    04:00 +21°C° 0 mm 2 mps 731 mmHg 54%
    05:00 +20°C° 0 mm 2 mps 731 mmHg 55%
    06:00 +23°C° 0 mm 2 mps 731 mmHg 52%
    07:00 +25°C° 0 mm 3 mps 732 mmHg 49%
    08:00 +27°C° 0 mm 3 mps 732 mmHg 46%
    09:00 +28°C° 0 mm 4 mps 732 mmHg 41%
    10:00 +30°C° 0 mm 5 mps 732 mmHg 36%
    11:00 +33°C° 0 mm 6 mps 732 mmHg 31%
    12:00 +34°C° 0 mm 6 mps 732 mmHg 30%
    13:00 +34°C° 0 mm 6 mps 732 mmHg 28%
    14:00 +35°C° 0 mm 6 mps 732 mmHg 27%
    15:00 +34°C° 0 mm 5 mps 732 mmHg 29%
    16:00 +34°C° 0 mm 5 mps 732 mmHg 31%
    17:00 +33°C° 0 mm 5 mps 732 mmHg 33%
    18:00 +30°C° 0 mm 4 mps 732 mmHg 37%
    19:00 +28°C° 0 mm 3 mps 732 mmHg 42%
    20:00 +26°C° 0 mm 2 mps 732 mmHg 46%
    21:00 +25°C° 0 mm 2 mps 732 mmHg 48%
    22:00 +24°C° 0 mm 2 mps 733 mmHg 50%
    23:00 +23°C° 0 mm 1 mps 733 mmHg 52%

    Tomorrow, 19 August, Sunday

    Time Temperature Precipitation Wind Pressure Humidity
    00:00 +23°C° 0 mm 1 mps 733 mmHg 51%
    01:00 +22°C° 0 mm 1 mps 733 mmHg 51%
    02:00 +22°C° 0 mm 1 mps 733 mmHg 51%
    03:00 +22°C° 0 mm 1 mps 733 mmHg 50%
    04:00 +21°C° 0 mm 1 mps 733 mmHg 50%
    05:00 +21°C° 0 mm 1 mps 733 mmHg 50%
    06:00 +23°C° 0 mm 2 mps 733 mmHg 46%
    07:00 +25°C° 0 mm 2 mps 733 mmHg 42%
    08:00 +27°C° 0 mm 2 mps 734 mmHg 38%
    09:00 +29°C° 0 mm 3 mps 734 mmHg 33%
    10:00 +32°C° 0 mm 4 mps 734 mmHg 29%
    11:00 +34°C° 0 mm 5 mps 734 mmHg 25%
    12:00 +34°C° 0 mm 5 mps 733 mmHg 25%
    13:00 +35°C° 0 mm 5 mps 733 mmHg 25%
    14:00 +35°C° 0 mm 5 mps 733 mmHg 25%
    15:00 +34°C° 0 mm 5 mps 733 mmHg 27%
    16:00 +34°C° 0 mm 4 mps 732 mmHg 29%
    17:00 +33°C° 0 mm 4 mps 732 mmHg 30%
    18:00 +30°C° 0 mm 4 mps 732 mmHg 36%
    19:00 +28°C° 0 mm 3 mps 732 mmHg 42%
    20:00 +26°C° 0 mm 2 mps 732 mmHg 47%
    21:00 +25°C° 0 mm 2 mps 732 mmHg 54%
    22:00 +24°C° 0 mm 2 mps 732 mmHg 61%
    23:00 +23°C° 0 mm 2 mps 732 mmHg 68%

    Day after tomorrow, 20 August, Monday

    Time Temperature Precipitation Wind Pressure Humidity
    00:00 +22°C° 0 mm 1 mps 732 mmHg 72%
    01:00 +21°C° 0 mm 1 mps 732 mmHg 76%
    02:00 +21°C° 0 mm 1 mps 732 mmHg 79%
    03:00 +20°C° 0 mm 1 mps 732 mmHg 80%
    04:00 +20°C° 0 mm 1 mps 732 mmHg 81%
    05:00 +19°C° 0 mm 1 mps 732 mmHg 82%
    06:00 +20°C° 0 mm 2 mps 732 mmHg 71%
    07:00 +23°C° 0 mm 2 mps 732 mmHg 61%
    08:00 +25°C° 0 mm 3 mps 733 mmHg 51%
    09:00 +26°C° 0 mm 4 mps 733 mmHg 43%
    10:00 +28°C° 0 mm 4 mps 733 mmHg 36%
    11:00 +30°C° 0 mm 5 mps 733 mmHg 28%
    12:00 +32°C° 0 mm 5 mps 733 mmHg 27%
    13:00 +32°C° 0 mm 5 mps 733 mmHg 26%
    14:00 +33°C° 0 mm 5 mps 732 mmHg 24%
    15:00 +32°C° 0 mm 5 mps 732 mmHg 26%
    16:00 +32°C° 0 mm 5 mps 732 mmHg 28%
    17:00 +30°C° 0 mm 5 mps 732 mmHg 30%
    18:00 +28°C° 0 mm 4 mps 732 mmHg 38%
    19:00 +25°C° 0 mm 4 mps 732 mmHg 45%
    20:00 +22°C° 0 mm 3 mps 732 mmHg 53%
    21:00 +20°C° 0 mm 2 mps 732 mmHg 58%
    22:00 +19°C° 0 mm 2 mps 732 mmHg 63%
    23:00 +19°C° 0 mm 1 mps 732 mmHg 68%

    21 August, Tuesday

    Time Temperature Precipitation Wind Pressure Humidity
    00:00 +19°C° 0 mm 1 mps 732 mmHg 69%
    01:00 +18°C° 0 mm 1 mps 732 mmHg 70%
    02:00 +18°C° 0 mm 1 mps 732 mmHg 71%
    03:00 +18°C° 0 mm 1 mps 732 mmHg 71%
    04:00 +16°C° 0 mm 1 mps 732 mmHg 72%
    05:00 +16°C° 0 mm 1 mps 732 mmHg 72%
    06:00 +19°C° 0 mm 1 mps 732 mmHg 65%
    07:00 +20°C° 0 mm 2 mps 733 mmHg 57%
    08:00 +23°C° 0 mm 2 mps 733 mmHg 50%
    09:00 +25°C° 0 mm 2 mps 733 mmHg 43%
    10:00 +27°C° 0 mm 3 mps 733 mmHg 36%
    11:00 +29°C° 0 mm 3 mps 734 mmHg 30%
    12:00 +30°C° 0 mm 4 mps 733 mmHg 27%
    13:00 +32°C° 0 mm 4 mps 733 mmHg 25%
    14:00 +33°C° 0 mm 4 mps 733 mmHg 22%
    15:00 +33°C° 0 mm 4 mps 733 mmHg 24%
    16:00 +32°C° 0 mm 4 mps 733 mmHg 26%
    17:00 +32°C° 0 mm 4 mps 733 mmHg 27%
    18:00 +28°C° 0 mm 3 mps 733 mmHg 35%
    19:00 +26°C° 0 mm 3 mps 733 mmHg 43%
    20:00 +23°C° 0 mm 2 mps 733 mmHg 51%
    21:00 +21°C° 0 mm 2 mps 733 mmHg 57%
    22:00 +20°C° 0 mm 2 mps 733 mmHg 63%
    23:00 +20°C° 0 mm 1 mps 733 mmHg 69%

    22 August, Wednesday

    Time Temperature Precipitation Wind Pressure Humidity
    00:00 +19°C° 0 mm 1 mps 733 mmHg 70%
    01:00 +19°C° 0 mm 1 mps 733 mmHg 72%
    02:00 +19°C° 0 mm 1 mps 733 mmHg 73%
    03:00 +18°C° 0 mm 1 mps 733 mmHg 72%
    04:00 +18°C° 0 mm 1 mps 733 mmHg 72%
    05:00 +18°C° 0 mm 1 mps 733 mmHg 71%
    06:00 +20°C° 0 mm 1 mps 733 mmHg 63%
    07:00 +22°C° 0 mm 1 mps 733 mmHg 55%
    08:00 +24°C° 0 mm 1 mps 734 mmHg 47%
    09:00 +26°C° 0 mm 2 mps 734 mmHg 39%
    10:00 +28°C° 0 mm 2 mps 734 mmHg 31%
    11:00 +30°C° 0 mm 3 mps 734 mmHg 23%
    12:00 +31°C° 0 mm 3 mps 733 mmHg 21%
    13:00 +33°C° 0 mm 4 mps 733 mmHg 19%
    14:00 +34°C° 0 mm 4 mps 733 mmHg 18%
    15:00 +34°C° 0 mm 4 mps 733 mmHg 20%
    16:00 +33°C° 0 mm 4 mps 733 mmHg 21%
    17:00 +33°C° 0 mm 4 mps 732 mmHg 23%
    18:00 +29°C° 0 mm 4 mps 732 mmHg 32%
    19:00 +26°C° 0 mm 3 mps 732 mmHg 41%
    20:00 +22°C° 0 mm 3 mps 732 mmHg 49%
    21:00 +21°C° 0 mm 2 mps 732 mmHg 56%
    22:00 +20°C° 0 mm 2 mps 732 mmHg 62%
    23:00 +20°C° 0 mm 1 mps 732 mmHg 68%

    23 August, Thursday

    Time Temperature Precipitation Wind Pressure Humidity
    00:00 +19°C° 0 mm 1 mps 732 mmHg 68%
    01:00 +19°C° 0 mm 1 mps 732 mmHg 67%
    02:00 +19°C° 0 mm 1 mps 732 mmHg 67%
    03:00 +18°C° 0 mm 1 mps 732 mmHg 66%
    04:00 +18°C° 0 mm 1 mps 731 mmHg 64%
    05:00 +18°C° 0 mm 1 mps 731 mmHg 63%
    06:00 +20°C° 0 mm 1 mps 732 mmHg 57%
    07:00 +22°C° 0 mm 1 mps 732 mmHg 52%
    08:00 +25°C° 0 mm 2 mps 732 mmHg 46%
    09:00 +27°C° 0 mm 2 mps 732 mmHg 40%
    10:00 +29°C° 0 mm 3 mps 732 mmHg 34%
    11:00 +31°C° 0 mm 3 mps 732 mmHg 28%
    12:00 +33°C° 0 mm 3 mps 732 mmHg 25%
    13:00 +34°C° 0 mm 4 mps 731 mmHg 22%
    14:00 +34°C° 0 mm 4 mps 731 mmHg 20%
    15:00 +34°C° 0 mm 4 mps 731 mmHg 21%
    16:00 +34°C° 0 mm 4 mps 731 mmHg 22%
    17:00 +33°C° 0 mm 4 mps 731 mmHg 23%
    18:00 +30°C° 0 mm 3 mps 731 mmHg 30%
    19:00 +27°C° 0 mm 3 mps 731 mmHg 37%
    20:00 +24°C° 0 mm 2 mps 731 mmHg 44%
    21:00 +23°C° 0 mm 2 mps 731 mmHg 49%
    22:00 +22°C° 0 mm 1 mps 731 mmHg 53%
    23:00 +21°C° 0 mm 1 mps 731 mmHg 58%
    Show more